Sylvania, GA

2:54 PM EDT on April 25, 2017 (GMT -0400)
Plantation

Weather History for KJYL - February, 2014

Change the Weather History Date:

Sunday, February 16, 2014

  Actual Average (KSAV) Record (KSAV)
Temperature  
Mean Temperature 54 °F -  
Max Temperature 65 °F 67 °F 86 °F (1989)
Min Temperature 43 °F 45 °F 21 °F (1991)
Degree Days  
Heating Degree Days 10    
Growing Degree Days 4 (Base 50)    
Moisture  
Dew Point 31 °F    
Average Humidity 43    
Maximum Humidity 76    
Minimum Humidity 25    
Precipitation  
Precipitation 0.00 in - - ()
Sea Level Pressure  
Sea Level Pressure 30.14 in    
Wind  
Wind Speed 5 mph (WNW)    
Max Wind Speed 10 mph    
Max Gust Speed 16 mph    
Visibility 10 miles    
Events      
Averages and records for this station are not official NWS values.
T = Trace of Precipitation, MM = Missing Value Source: NWS Daily Summary

Daily Weather History Graph

Daily Weather History Graph

Search for Another Location

Airport or City:

Trip Planner

Search our weather history database for the weather conditions in past years. The results will help you decide how hot, cold, wet, or windy it might be!

Date:

Astronomy

Feb. 16, 2014 Rise Set
Actual Time 7:08 AM EST 6:12 PM EST
Civil Twilight 6:43 AM EST 6:38 PM EST
Nautical Twilight 6:14 AM EST 7:06 PM EST
Astronomical Twilight 5:45 AM EST 7:35 PM EST
Moon 7:59 PM EST (2/16) 7:45 AM EST (2/16)
Length of Visible Light 11h 54m
Length of Day
11h 04m
Full, 97% of the Moon is Illuminated
Feb 16
Full
Feb 22
Last Quarter
Mar 1
New
Mar 8
First Quarter
Mar 16
Full

Hourly Weather History & Observations

Time (EST) Temp. Dew Point Humidity Pressure Visibility Wind Dir Wind Speed Gust Speed Precip Events Conditions
9:35 AM - - N/A% 30.19 in - Calm Calm - N/A   Unknown
9:55 AM 48.6 °F 29.5 °F 48% 30.18 in 10.0 mi Calm Calm - N/A   Unknown
10:15 AM 50.9 °F 28.4 °F 42% 30.18 in 10.0 mi WNW 6.9 mph - N/A   Clear
10:35 AM 52.7 °F 27.7 °F 38% 30.18 in 10.0 mi NW 10.4 mph - N/A   Clear
10:55 AM 54.3 °F 27.0 °F 35% 30.18 in 10.0 mi WNW 10.4 mph - N/A   Clear
11:15 AM 55.6 °F 26.2 °F 32% 30.18 in 10.0 mi WNW 8.1 mph - N/A   Clear
11:35 AM 57.0 °F 25.9 °F 30% 30.17 in 10.0 mi WNW 6.9 mph - N/A   Clear
11:55 AM 58.1 °F 27.0 °F 30% 30.16 in 10.0 mi NW 10.4 mph - N/A   Clear
12:15 PM 58.8 °F 27.5 °F 30% 30.15 in 10.0 mi NW 9.2 mph 16.1 mph N/A   Clear
12:35 PM 59.7 °F 27.1 °F 29% 30.15 in 10.0 mi WNW 10.4 mph - N/A   Clear
12:55 PM 60.1 °F 26.6 °F 28% 30.14 in 10.0 mi WNW 9.2 mph - N/A   Clear
1:15 PM 61.2 °F 26.4 °F 27% 30.13 in 10.0 mi West 5.8 mph - N/A   Clear
1:35 PM 61.3 °F 25.9 °F 26% 30.13 in 10.0 mi WSW 6.9 mph - N/A   Clear
1:55 PM 61.9 °F 27.5 °F 27% 30.11 in 10.0 mi NW 8.1 mph - N/A   Clear
2:15 PM 62.8 °F 27.5 °F 26% 30.10 in 10.0 mi West 6.9 mph - N/A   Clear
2:35 PM 63.5 °F 27.5 °F 26% 30.10 in 10.0 mi West 4.6 mph - N/A   Clear
2:55 PM 63.7 °F 27.3 °F 25% 30.10 in 10.0 mi West 6.9 mph - N/A   Clear
3:15 PM 64.4 °F 28.0 °F 25% 30.09 in 10.0 mi WNW 8.1 mph - N/A   Clear
3:35 PM 64.8 °F 28.6 °F 26% 30.09 in 10.0 mi West 6.9 mph - N/A   Clear
3:55 PM 64.6 °F 28.9 °F 26% 30.10 in 10.0 mi WSW 4.6 mph - N/A   Clear
4:15 PM 65.1 °F 29.7 °F 26% 30.09 in 10.0 mi West 9.2 mph - N/A   Clear
4:35 PM 64.8 °F 28.4 °F 25% 30.10 in 10.0 mi West 9.2 mph 16.1 mph N/A   Clear
4:55 PM 64.6 °F 29.5 °F 27% 30.10 in 10.0 mi WNW 9.2 mph - N/A   Clear
5:15 PM 64.4 °F 28.9 °F 26% 30.10 in 10.0 mi West 8.1 mph - N/A   Clear
5:35 PM 63.7 °F 29.7 °F 28% 30.11 in 10.0 mi West 4.6 mph - N/A   Clear
5:55 PM 62.4 °F 30.4 °F 30% 30.11 in 10.0 mi WSW 3.5 mph - N/A   Clear
6:15 PM 60.6 °F 31.5 °F 33% 30.11 in 10.0 mi Calm Calm - N/A   Clear
6:35 PM 57.7 °F 32.2 °F 38% 30.12 in 10.0 mi Calm Calm - N/A   Clear
6:55 PM 54.5 °F 33.3 °F 45% 30.13 in 10.0 mi Calm Calm - N/A   Clear
7:15 PM 52.3 °F 36.5 °F 55% 30.14 in 10.0 mi Calm Calm - N/A   Clear
7:35 PM 50.9 °F 37.9 °F 61% 30.14 in 10.0 mi Calm Calm - N/A   Clear
7:55 PM 49.5 °F 36.9 °F 62% 30.14 in 10.0 mi Calm Calm - N/A   Clear
8:15 PM 48.9 °F 37.8 °F 65% 30.14 in 10.0 mi Calm Calm - N/A   Clear
8:35 PM 48.2 °F 34.9 °F 60% 30.14 in 10.0 mi Calm Calm - N/A   Clear
8:55 PM 47.3 °F 36.5 °F 66% 30.14 in 10.0 mi Calm Calm - N/A   Clear
9:15 PM 46.6 °F 35.4 °F 65% 30.15 in 10.0 mi Calm Calm - N/A   Clear
9:35 PM 46.8 °F 37.9 °F 71% 30.15 in 10.0 mi Calm Calm - N/A   Clear
9:55 PM 46.6 °F 35.2 °F 65% 30.16 in 10.0 mi Calm Calm - N/A   Clear
10:15 PM 45.5 °F 37.2 °F 73% 30.16 in 10.0 mi Calm Calm - N/A   Clear
10:35 PM 45.7 °F 35.1 °F 66% 30.16 in 10.0 mi Calm Calm - N/A   Clear
10:55 PM 45.1 °F 37.8 °F 75% 30.17 in 10.0 mi Calm Calm - N/A   Clear
11:15 PM 44.4 °F 37.4 °F 76% 30.17 in 10.0 mi Calm Calm - N/A   Clear
11:35 PM 44.6 °F 35.8 °F 71% 30.17 in 10.0 mi Calm Calm - N/A   Clear
11:55 PM 43.2 °F 35.6 °F 75% 30.16 in 10.0 mi Calm Calm - N/A   Clear